When you browse on this site, cookies collect data to enhance your experience and personalize the content and advertising you see.
Visit our Privacy Policy to learn more. By continuing to use the site, you agree to this use of cookies and data.
  • In Sweden
  • List of Countries
  • For 7 days
  • Water Temperature
  • Satellite Maps
  • Weather Map
  • Weather Widgets
  • user-avatar
    Login

    Hourly Weather Dundee

    Today, 18 January, Friday

    Time Temperature Precipitation Wind Pressure Humidity
    00:00 +1°C° 0 mm 1 mps 751 mmHg 71%
    01:00 +1°C° 0 mm 1 mps 751 mmHg 71%
    02:00 +1°C° 0 mm 1 mps 750 mmHg 71%
    03:00 -1°C° 0 mm 2 mps 750 mmHg 71%
    04:00 -1°C° 0 mm 2 mps 750 mmHg 71%
    05:00 -1°C° 0 mm 2 mps 749 mmHg 72%
    06:00 -1°C° 0 mm 3 mps 749 mmHg 72%
    07:00 0°C° 0 mm 3 mps 749 mmHg 71%
    08:00 0°C° 0 mm 3 mps 749 mmHg 70%
    09:00 -1°C° 0 mm 4 mps 748 mmHg 69%
    10:00 0°C° 0 mm 4 mps 748 mmHg 67%
    11:00 0°C° 0 mm 4 mps 748 mmHg 64%
    12:00 +1°C° 0 mm 4 mps 747 mmHg 62%
    13:00 +1°C° 0 mm 4 mps 747 mmHg 64%
    14:00 0°C° 0 mm 4 mps 746 mmHg 67%
    15:00 0°C° 0 mm 4 mps 746 mmHg 70%
    16:00 0°C° 0.3 mm 4 mps 745 mmHg 74%
    17:00 0°C° 0.3 mm 4 mps 745 mmHg 78%
    18:00 0°C° 0.3 mm 5 mps 745 mmHg 82%
    19:00 0°C° 0.4 mm 4 mps 745 mmHg 84%
    20:00 0°C° 0.4 mm 4 mps 744 mmHg 86%
    21:00 0°C° 0.4 mm 4 mps 744 mmHg 88%
    22:00 0°C° 0.4 mm 4 mps 744 mmHg 90%
    23:00 +1°C° 0.4 mm 3 mps 744 mmHg 91%

    Tomorrow, 19 January, Saturday

    Time Temperature Precipitation Wind Pressure Humidity
    00:00 +1°C° 0.4 mm 3 mps 744 mmHg 93%
    01:00 +1°C° 0.3 mm 3 mps 743 mmHg 93%
    02:00 +2°C° 0.3 mm 2 mps 743 mmHg 94%
    03:00 +2°C° 0.3 mm 2 mps 743 mmHg 94%
    04:00 +2°C° 0.1 mm 2 mps 743 mmHg 94%
    05:00 +2°C° 0.1 mm 2 mps 743 mmHg 94%
    06:00 +3°C° 0.1 mm 1 mps 743 mmHg 94%
    07:00 +1°C° 0 mm 2 mps 743 mmHg 93%
    08:00 +1°C° 0 mm 2 mps 743 mmHg 93%
    09:00 +1°C° 0 mm 2 mps 743 mmHg 93%
    10:00 +2°C° 0 mm 2 mps 743 mmHg 93%
    11:00 +2°C° 0 mm 2 mps 743 mmHg 93%
    12:00 +3°C° 0 mm 2 mps 744 mmHg 93%
    13:00 +3°C° 0 mm 2 mps 744 mmHg 93%
    14:00 +3°C° 0 mm 2 mps 744 mmHg 93%
    15:00 +3°C° 0 mm 2 mps 744 mmHg 93%
    16:00 +4°C° 0 mm 1 mps 744 mmHg 94%
    17:00 +4°C° 0 mm 1 mps 744 mmHg 94%
    18:00 +4°C° 0 mm 1 mps 745 mmHg 94%
    19:00 +4°C° 0 mm 1 mps 745 mmHg 94%
    20:00 +4°C° 0 mm 1 mps 745 mmHg 94%
    21:00 +4°C° 0 mm 1 mps 746 mmHg 93%
    22:00 +3°C° 0 mm 1 mps 746 mmHg 93%
    23:00 +3°C° 0 mm 1 mps 746 mmHg 93%

    Day after tomorrow, 20 January, Sunday

    Time Temperature Precipitation Wind Pressure Humidity
    00:00 +3°C° 0 mm 1 mps 747 mmHg 92%
    01:00 +2°C° 0 mm 2 mps 747 mmHg 91%
    02:00 +1°C° 0 mm 2 mps 747 mmHg 91%
    03:00 +1°C° 0 mm 2 mps 747 mmHg 90%
    04:00 +1°C° 0 mm 2 mps 748 mmHg 89%
    05:00 +1°C° 0 mm 2 mps 748 mmHg 89%
    06:00 -1°C° 0 mm 2 mps 748 mmHg 88%
    07:00 -1°C° 0 mm 2 mps 749 mmHg 88%
    08:00 -1°C° 0 mm 2 mps 750 mmHg 87%
    09:00 -1°C° 0 mm 2 mps 750 mmHg 87%
    10:00 +2°C° 0 mm 2 mps 751 mmHg 84%
    11:00 +3°C° 0 mm 2 mps 752 mmHg 82%
    12:00 +3°C° 0 mm 3 mps 752 mmHg 79%
    13:00 +3°C° 0.1 mm 3 mps 753 mmHg 80%
    14:00 +3°C° 0.1 mm 3 mps 753 mmHg 80%
    15:00 +3°C° 0.1 mm 4 mps 754 mmHg 80%
    16:00 +2°C° 0.2 mm 3 mps 755 mmHg 79%
    17:00 +1°C° 0.2 mm 3 mps 755 mmHg 79%
    18:00 +1°C° 0.2 mm 3 mps 756 mmHg 78%
    19:00 0°C° 0 mm 3 mps 757 mmHg 79%
    20:00 -1°C° 0 mm 3 mps 757 mmHg 80%
    21:00 -1°C° 0 mm 3 mps 758 mmHg 81%
    22:00 -1°C° 0 mm 3 mps 758 mmHg 81%
    23:00 -1°C° 0 mm 3 mps 758 mmHg 82%

    21 January, Monday

    Time Temperature Precipitation Wind Pressure Humidity
    00:00 -1°C° 0 mm 3 mps 759 mmHg 82%
    01:00 -2°C° 0 mm 3 mps 758 mmHg 82%
    02:00 -2°C° 0 mm 3 mps 758 mmHg 82%
    03:00 -2°C° 0 mm 3 mps 758 mmHg 81%
    04:00 -2°C° 0 mm 3 mps 757 mmHg 81%
    05:00 -2°C° 0 mm 3 mps 757 mmHg 81%
    06:00 -2°C° 0 mm 3 mps 756 mmHg 81%
    07:00 -1°C° 0 mm 3 mps 756 mmHg 82%
    08:00 -1°C° 0 mm 4 mps 755 mmHg 83%
    09:00 -1°C° 0 mm 5 mps 754 mmHg 83%
    10:00 0°C° 0.1 mm 5 mps 753 mmHg 82%
    11:00 -1°C° 0.1 mm 6 mps 752 mmHg 80%
    12:00 0°C° 0.1 mm 7 mps 751 mmHg 78%
    13:00 0°C° 0 mm 8 mps 749 mmHg 78%
    14:00 0°C° 0 mm 8 mps 748 mmHg 78%
    15:00 +1°C° 0 mm 8 mps 746 mmHg 79%
    16:00 +1°C° 0.6 mm 8 mps 745 mmHg 81%
    17:00 +1°C° 0.6 mm 8 mps 743 mmHg 82%
    18:00 0°C° 0.6 mm 8 mps 742 mmHg 84%
    19:00 +2°C° 0.3 mm 7 mps 741 mmHg 86%
    20:00 +2°C° 0.3 mm 7 mps 740 mmHg 88%
    21:00 +2°C° 0.3 mm 6 mps 739 mmHg 89%
    22:00 +1°C° 0.2 mm 6 mps 738 mmHg 86%
    23:00 0°C° 0.2 mm 5 mps 738 mmHg 82%

    22 January, Tuesday

    Time Temperature Precipitation Wind Pressure Humidity
    00:00 0°C° 0.2 mm 4 mps 738 mmHg 78%
    01:00 -1°C° 0 mm 4 mps 738 mmHg 79%
    02:00 -1°C° 0 mm 4 mps 738 mmHg 80%
    03:00 -2°C° 0 mm 4 mps 738 mmHg 80%
    04:00 -2°C° 0 mm 4 mps 738 mmHg 81%
    05:00 -2°C° 0 mm 5 mps 738 mmHg 82%
    06:00 -4°C° 0 mm 5 mps 738 mmHg 82%
    07:00 -4°C° 0 mm 5 mps 738 mmHg 82%
    08:00 -3°C° 0 mm 4 mps 738 mmHg 82%
    09:00 -3°C° 0 mm 4 mps 739 mmHg 82%
    10:00 -2°C° 0 mm 4 mps 739 mmHg 79%
    11:00 -1°C° 0 mm 5 mps 739 mmHg 76%
    12:00 0°C° 0 mm 5 mps 739 mmHg 73%
    13:00 0°C° 0 mm 5 mps 739 mmHg 74%
    14:00 0°C° 0 mm 4 mps 739 mmHg 75%
    15:00 0°C° 0 mm 4 mps 738 mmHg 76%
    16:00 -1°C° 0 mm 4 mps 738 mmHg 77%
    17:00 -1°C° 0 mm 3 mps 738 mmHg 79%
    18:00 -1°C° 0 mm 3 mps 738 mmHg 80%
    19:00 -2°C° 0 mm 3 mps 739 mmHg 82%
    20:00 -2°C° 0 mm 2 mps 739 mmHg 84%
    21:00 -2°C° 0 mm 2 mps 739 mmHg 86%
    22:00 -2°C° 0 mm 2 mps 739 mmHg 86%
    23:00 -2°C° 0 mm 2 mps 739 mmHg 85%

    23 January, Wednesday

    Time Temperature Precipitation Wind Pressure Humidity
    00:00 -2°C° 0 mm 2 mps 739 mmHg 85%
    01:00 -2°C° 0 mm 2 mps 739 mmHg 84%
    02:00 -2°C° 0 mm 2 mps 739 mmHg 83%
    03:00 -2°C° 0 mm 2 mps 739 mmHg 82%
    04:00 -2°C° 0 mm 2 mps 739 mmHg 82%
    05:00 -3°C° 0 mm 2 mps 740 mmHg 81%
    06:00 -1°C° 0 mm 1 mps 740 mmHg 81%
    07:00 -2°C° 0 mm 2 mps 740 mmHg 80%
    08:00 -2°C° 0 mm 2 mps 741 mmHg 79%
    09:00 -2°C° 0 mm 2 mps 742 mmHg 78%
    10:00 -1°C° 0 mm 2 mps 742 mmHg 76%
    11:00 +1°C° 0 mm 2 mps 743 mmHg 73%
    12:00 +1°C° 0 mm 3 mps 743 mmHg 71%
    13:00 +1°C° 0 mm 3 mps 744 mmHg 73%
    14:00 +1°C° 0 mm 3 mps 744 mmHg 75%
    15:00 0°C° 0 mm 4 mps 744 mmHg 76%
    16:00 0°C° 0 mm 4 mps 745 mmHg 78%
    17:00 -1°C° 0 mm 5 mps 746 mmHg 80%
    18:00 -2°C° 0 mm 6 mps 747 mmHg 82%
    19:00 0°C° 0 mm 5 mps 749 mmHg 84%
    20:00 0°C° 0 mm 5 mps 750 mmHg 85%
    21:00 +1°C° 0 mm 5 mps 751 mmHg 86%
    22:00 +1°C° 0 mm 4 mps 752 mmHg 86%
    23:00 +1°C° 0 mm 4 mps 752 mmHg 86%
    Show more